FW1193 Weather Reports


time (UTC)temp
C
wind
direction
speed
KPH
gust
KPH
rain 1hr
cm
rain 24hr
cm
rain mn
cm
humidity
%
barometer
mb
20260505035801 16 57 0.0 0.0 0.00 0.00 0.00 81 1012.2
20260505035304 16 57 0.0 0.0 0.00 0.00 0.00 81 1012.2
20260505034738 16 57 0.0 0.0 0.00 0.00 0.00 81 1012.1
20260505034230 17 56 0.0 0.0 0.00 0.00 0.00 81 1012.2
20260505033956 17 57 0.0 0.0 0.00 0.00 0.00 81 1012.2
20260505033224 17 57 0.0 1.6 0.00 0.00 0.00 80 1012.1
20260505032726 17 57 0.0 1.6 0.00 0.00 0.00 80 1012.2
20260505032455 17 57 0.0 1.6 0.00 0.00 0.00 79 1012.2
20260505031719 17 57 0.0 0.0 0.00 0.00 0.00 79 1012.2
20260505031208 17 57 0.0 0.0 0.00 0.00 0.00 78 1012.2
20260505030708 17 57 0.0 1.6 0.00 0.00 0.00 77 1012.2
20260505030204 17 57 0.0 1.6 0.00 0.00 0.00 77 1012.2
20260505025702 17 56 0.0 1.6 0.00 0.00 0.00 77 1012.0
20260505025201 17 57 0.0 1.6 0.00 0.00 0.00 76 1012.0
20260505024700 17 57 0.0 1.6 0.00 0.00 0.00 76 1011.9
20260505024155 17 56 0.0 1.6 0.00 0.00 0.00 76 1011.9
20260505023651 17 57 0.0 1.6 0.00 0.00 0.00 75 1011.8
20260505023148 17 57 0.0 1.6 0.00 0.00 0.00 75 1011.8
20260505022646 18 57 0.0 1.6 0.00 0.00 0.00 75 1011.7
20260505022416 18 57 0.0 1.6 0.00 0.00 0.00 74 1011.6
20260505021645 18 57 0.0 1.6 0.00 0.00 0.00 73 1011.6
20260505021143 18 56 0.0 1.6 0.00 0.00 0.00 72 1011.7
20260505020642 18 56 0.0 0.0 0.00 0.00 0.00 72 1011.8
20260505020138 18 56 0.0 0.0 0.00 0.00 0.00 71 1011.7
20260505015641 18 57 0.0 0.0 0.00 0.00 0.00 69 1011.7
20260505015408 18 56 0.0 0.0 0.00 0.00 0.00 69 1011.6
20260505014907 19 56 0.0 0.0 0.00 0.00 0.00 69 1011.5
20260505014137 19 56 0.0 0.0 0.00 0.00 0.00 68 1011.5
20260505013636 19 56 0.0 0.0 0.00 0.00 0.00 68 1011.6
20260505013129 19 57 0.0 0.0 0.00 0.00 0.00 69 1011.5
20260505012627 20 56 0.0 0.0 0.00 0.00 0.00 67 1011.4
20260505012401 20 56 0.0 0.0 0.00 0.00 0.00 66 1011.4
20260505011627 20 57 0.0 1.6 0.00 0.00 0.00 67 1011.2
20260505011126 20 57 0.0 1.6 0.00 0.00 0.00 66 1011.2
20260505010625 20 56 0.0 1.6 0.00 0.00 0.00 65 1011.2
20260505010358 20 57 0.0 1.6 0.00 0.00 0.00 63 1011.2
20260505005620 21 57 0.0 1.6 0.00 0.00 0.00 62 1011.3
20260505005120 21 56 0.0 1.6 0.00 0.00 0.00 61 1011.4
20260505004621 21 57 0.0 1.6 0.00 0.00 0.00 63 1011.2
20260505004121 21 57 0.0 3.2 0.00 0.00 0.00 63 1011.1
20260505003609 21 57 0.0 4.8 0.00 0.00 0.00 61 1011.2
20260505003105 21 57 0.0 4.8 0.00 0.00 0.00 62 1011.2
20260505002553 22 39 0.0 1.6 0.00 0.00 0.00 61 1011.4
20260505002047 22 39 0.0 1.6 0.00 0.00 0.00 60 1011.5
20260505001544 22 39 0.0 3.2 0.00 0.00 0.00 60 1011.5
20260505001027 22 39 1.6 3.2 0.00 0.00 0.00 61 1011.5
20260505000523 22 39 0.0 3.2 0.00 0.00 0.00 59 1011.6
20260505000255 23 39 0.0 3.2 0.00 0.00 0.00 57 1011.7
20260504235756 23 39 0.0 3.2 0.00 0.00 0.00 57 1011.9
20260504235021 23 39 0.0 3.2 0.00 0.00 0.00 56 1011.8
20260504234521 23 39 0.0 3.2 0.00 0.00 0.00 55 1011.9
20260504234021 24 38 0.0 1.6 0.00 0.00 0.00 55 1011.9
20260504233519 24 38 0.0 3.2 0.00 0.00 0.00 53 1011.9
20260504233017 24 47 0.0 3.2 0.00 0.00 0.00 55 1011.8
20260504232518 25 44 1.6 3.2 0.00 0.00 0.00 51 1011.8
20260504232018 25 44 1.6 3.2 0.00 0.00 0.00 54 1011.9
20260504231516 25 46 0.0 3.2 0.00 0.00 0.00 50 1012.0
20260504231015 25 46 0.0 4.8 0.00 0.00 0.00 50 1012.0
20260504230506 26 110 0.0 4.8 0.00 0.00 0.00 49 1012.0
20260504230005 26 0 0.0 4.8 0.00 0.00 0.00 49 1012.0
20260504225503 26 0 0.0 4.8 0.00 0.00 0.00 50 1011.9
20260504224955 26 0 0.0 3.2 0.00 0.00 0.00 50 1012.0
20260504224441 26 355 0.0 4.8 0.00 0.00 0.00 49 1012.1
20260504224212 26 355 1.6 8.0 0.00 0.00 0.00 49 1012.2
20260504223440 26 355 1.6 8.0 0.00 0.00 0.00 49 1012.2
20260504222940 26 76 1.6 6.4 0.00 0.00 0.00 47 1012.2
20260504222441 26 98 1.6 4.8 0.00 0.00 0.00 49 1012.2
20260504222209 26 98 1.6 8.0 0.00 0.00 0.00 48 1012.2
20260504221439 26 327 1.6 8.0 0.00 0.00 0.00 49 1012.4
20260504220933 26 76 1.6 4.8 0.00 0.00 0.00 51 1012.4
20260504220431 26 301 1.6 4.8 0.00 0.00 0.00 47 1012.4
20260504215932 26 294 1.6 4.8 0.00 0.00 0.00 48 1012.4
20260504215431 26 336 1.6 6.4 0.00 0.00 0.00 47 1012.6
20260504214928 26 117 1.6 9.7 0.00 0.00 0.00 47 1012.6
20260504214428 26 346 1.6 9.7 0.00 0.00 0.00 49 1012.6
20260504213927 27 101 1.6 6.4 0.00 0.00 0.00 50 1012.6
20260504213424 26 314 1.6 11.3 0.00 0.00 0.00 47 1012.6
20260504212923 27 105 1.6 11.3 0.00 0.00 0.00 47 1012.6
20260504212412 27 349 1.6 6.4 0.00 0.00 0.00 45 1012.6
20260504211904 27 22 1.6 6.4 0.00 0.00 0.00 47 1012.6
20260504211633 27 30 1.6 6.4 0.00 0.00 0.00 45 1012.7
20260504210904 27 296 1.6 6.4 0.00 0.00 0.00 48 1012.7
20260504210405 26 306 1.6 9.7 0.00 0.00 0.00 48 1012.8
20260504205904 26 105 3.2 9.7 0.00 0.00 0.00 49 1012.9
20260504205621 26 294 3.2 9.7 0.00 0.00 0.00 48 1013.1
20260504204845 26 296 3.2 9.7 0.00 0.00 0.00 46 1013.4
20260504204839 26 331 1.6 6.4 0.00 0.00 0.00 49 1013.2
20260504203839 26 317 3.2 9.7 0.00 0.00 0.00 49 1013.4
20260504203339 26 265 3.2 9.7 0.00 0.00 0.00 48 1013.4
20260504202841 26 328 1.6 8.0 0.00 0.00 0.00 46 1013.4
20260504202341 26 146 1.6 9.7 0.00 0.00 0.00 49 1013.6
20260504202108 26 243 1.6 9.7 0.00 0.00 0.00 49 1013.7
20260504201332 26 76 3.2 8.0 0.00 0.00 0.00 48 1013.9
20260504201104 26 306 3.2 9.7 0.00 0.00 0.00 47 1013.9
20260504200604 26 36 1.6 9.7 0.00 0.00 0.00 48 1013.8
20260504195832 26 111 1.6 6.4 0.00 0.00 0.00 48 1013.9
20260504195332 26 81 1.6 4.8 0.00 0.00 0.00 49 1013.9
20260504194830 26 245 1.6 6.4 0.00 0.00 0.00 47 1014.1
20260504194331 26 110 1.6 6.4 0.00 0.00 0.00 45 1014.1
20260504193830 26 52 1.6 9.7 0.00 0.00 0.00 45 1014.3
20260504193328 26 355 1.6 9.7 0.00 0.00 0.00 46 1014.4
20260504192826 26 295 1.6 8.0 0.00 0.00 0.00 46 1014.5
20260504192327 26 267 1.6 8.0 0.00 0.00 0.00 52 1014.5
20260504191821 26 270 1.6 9.7 0.00 0.00 0.00 49 1014.7
20260504191319 26 138 3.2 11.3 0.00 0.00 0.00 51 1014.7
20260504191315 26 319 1.6 9.7 0.00 0.00 0.00 48 1014.6
20260504190308 25 109 4.8 11.3 0.00 0.00 0.00 48 1014.7
20260504185811 25 277 4.8 11.3 0.00 0.00 0.00 45 1014.8
20260504185246 26 296 1.6 8.0 0.00 0.00 0.00 52 1014.7
20260504184747 26 298 1.6 6.4 0.00 0.00 0.00 51 1014.8
20260504184241 26 49 1.6 8.0 0.00 0.00 0.00 51 1014.9
20260504183737 26 314 1.6 8.0 0.00 0.00 0.00 49 1014.8
20260504183236 26 288 1.6 8.0 0.00 0.00 0.00 50 1015.0
20260504183009 25 186 1.6 9.7 0.00 0.00 0.00 46 1015.2
20260504182237 25 267 1.6 9.7 0.00 0.00 0.00 54 1015.1
20260504181731 25 339 1.6 9.7 0.00 0.00 0.00 47 1015.2
20260504181228 25 21 3.2 9.7 0.00 0.00 0.00 50 1015.4
20260504180729 25 349 3.2 8.0 0.00 0.00 0.00 53 1015.5
20260504180229 25 279 1.6 8.0 0.00 0.00 0.00 45 1015.6
20260504175727 25 58 1.6 9.7 0.00 0.00 0.00 48 1015.6
20260504175226 25 245 1.6 9.7 0.00 0.00 0.00 46 1015.6
20260504174727 25 265 1.6 9.7 0.00 0.00 0.00 51 1015.7
20260504174225 25 63 3.2 11.3 0.00 0.00 0.00 51 1015.7
20260504173724 25 49 3.2 11.3 0.00 0.00 0.00 49 1015.8
20260504173224 25 302 1.6 9.7 0.00 0.00 0.00 49 1015.9
20260504172946 25 68 1.6 6.4 0.00 0.00 0.00 47 1015.9
20260504172821 25 72 1.6 6.4 0.00 0.00 0.00 50 1015.8
20260504171707 25 67 3.2 8.0 0.00 0.00 0.00 45 1015.8
20260504171207 25 78 1.6 8.0 0.00 0.00 0.00 48 1016.1
20260504170706 25 72 1.6 6.4 0.00 0.00 0.00 46 1016.1
20260504170202 25 22 1.6 6.4 0.00 0.00 0.00 49 1016.1
20260504160129 24 46 1.6 4.8 0.00 0.00 0.00 49 1016.5
20260504150549 23 128 1.6 3.2 0.00 0.00 0.00 61 1016.6
20260504140434 20 311 1.6 4.8 0.00 0.00 0.00 75 1016.5
20260504130342 15 319 0.0 0.0 0.00 0.00 0.00 95 1016.6
20260504120247 11 319 0.0 0.0 0.00 0.00 0.00 94 1016.3
20260504110634 11 319 0.0 0.0 0.00 0.00 0.00 94 1015.9
20260504110113 11 319 0.0 0.0 0.00 0.00 0.00 94 1015.9
20260504100421 11 319 0.0 0.0 0.00 0.00 0.00 94 1015.9
20260504090140 12 319 0.0 0.0 0.00 0.00 0.00 93 1016.2
20260504081914 12 319 0.0 0.0 0.00 0.00 0.00 92 1016.3
20260504081341 12 319 0.0 0.0 0.00 0.00 0.00 92 1016.3
20260504080841 12 319 0.0 0.0 0.00 0.00 0.00 92 1016.4
20260504080550 12 319 0.0 0.0 0.00 0.00 0.00 92 1016.4
20260504070127 12 319 0.0 0.0 0.00 0.00 0.00 91 1016.6
20260504050202 13 319 0.0 0.0 0.00 0.00 0.00 88 1017.3
20260504045645 13 319 0.0 0.0 0.00 0.00 0.00 88 1017.3
20260504045405 13 319 0.0 0.0 0.00 0.00 0.00 88 1017.4
20260504044634 13 319 0.0 0.0 0.00 0.00 0.00 88 1017.4
20260504044406 13 319 0.0 0.0 0.00 0.00 0.00 88 1017.5
20260504043626 13 319 0.0 0.0 0.00 0.00 0.00 87 1017.5
20260504043121 14 319 0.0 0.0 0.00 0.00 0.00 87 1017.6
20260504042623 14 319 0.0 0.0 0.00 0.00 0.00 87 1017.6
20260504042123 14 319 0.0 0.0 0.00 0.00 0.00 87 1017.5
20260504041607 14 319 0.0 0.0 0.00 0.00 0.00 87 1017.6
20260504041104 14 319 0.0 0.0 0.00 0.00 0.00 86 1017.5
20260504040559 14 319 0.0 0.0 0.00 0.00 0.00 86 1017.6